owner,sensor,date,latitude,longitude,vertical_datum,sea_water_practical_salinity,qcFlag 
DISL,ioos:station:DISL:MHPA:1,2009-03-01T00:00:00Z,30.6671,-87.9365,3.438,0.9,1111122 
DISL,ioos:station:DISL:MHPA:1,2009-03-01T00:30:00Z,30.6671,-87.9365,3.323,0.95,1111122 
DISL,ioos:station:DISL:MHPA:1,2009-03-01T01:00:00Z,30.6671,-87.9365,3.068,0.92,1111122 
DISL,ioos:station:DISL:MHPA:1,2009-03-01T01:30:00Z,30.6671,-87.9365,2.86,0.93,1111122 
DISL,ioos:station:DISL:MHPA:1,2009-03-01T02:00:00Z,30.6671,-87.9365,2.636,0.93,1111122 
DISL,ioos:station:DISL:MHPA:1,2009-03-01T02:30:00Z,30.6671,-87.9365,2.501,0.95,1111122 
DISL,ioos:station:DISL:MHPA:1,2009-03-01T03:00:00Z,30.6671,-87.9365,2.396,0.95,1111122 
DISL,ioos:station:DISL:MHPA:1,2009-03-01T03:30:00Z,30.6671,-87.9365,2.344,0.95,1111122 
DISL,ioos:station:DISL:MHPA:1,2009-03-01T04:00:00Z,30.6671,-87.9365,2.391,0.96,1111122 
DISL,ioos:station:DISL:MHPA:1,2009-03-01T04:30:00Z,30.6671,-87.9365,2.29,0.97,1111122 
DISL,ioos:station:DISL:MHPA:1,2009-03-01T05:00:00Z,30.6671,-87.9365,2.149,0.99,1111122 
DISL,ioos:station:DISL:MHPA:1,2009-03-01T05:30:00Z,30.6671,-87.9365,1.988,1.0,1111122 
DISL,ioos:station:DISL:MHPA:1,2009-03-01T06:00:00Z,30.6671,-87.9365,1.855,0.99,1111122 
DISL,ioos:station:DISL:MHPA:1,2009-03-01T06:30:00Z,30.6671,-87.9365,1.762,0.99,1111122 
DISL,ioos:station:DISL:MHPA:1,2009-03-01T07:00:00Z,30.6671,-87.9365,1.678,0.99,1111122 
DISL,ioos:station:DISL:MHPA:1,2009-03-01T07:30:00Z,30.6671,-87.9365,1.685,0.99,1111122 
DISL,ioos:station:DISL:MHPA:1,2009-03-01T08:00:00Z,30.6671,-87.9365,1.857,0.99,1111122 
DISL,ioos:station:DISL:MHPA:1,2009-03-01T08:30:00Z,30.6671,-87.9365,1.948,0.99,1111122 
DISL,ioos:station:DISL:MHPA:1,2009-03-01T09:00:00Z,30.6671,-87.9365,1.876,0.99,1111122 
DISL,ioos:station:DISL:MHPA:1,2009-03-01T09:30:00Z,30.6671,-87.9365,1.825,0.99,1111122 
DISL,ioos:station:DISL:MHPA:1,2009-03-01T10:00:00Z,30.6671,-87.9365,1.815,0.99,1111122 
DISL,ioos:station:DISL:MHPA:1,2009-03-01T10:30:00Z,30.6671,-87.9365,1.723,0.99,1111122 
DISL,ioos:station:DISL:MHPA:1,2009-03-01T11:00:00Z,30.6671,-87.9365,1.668,0.99,1111122 
DISL,ioos:station:DISL:MHPA:1,2009-03-01T11:30:00Z,30.6671,-87.9365,1.628,0.99,1111122 
DISL,ioos:station:DISL:MHPA:1,2009-03-01T12:00:00Z,30.6671,-87.9365,1.643,0.99,1111122 
DISL,ioos:station:DISL:MHPA:1,2009-03-01T12:30:00Z,30.6671,-87.9365,1.744,0.99,1111122 
DISL,ioos:station:DISL:MHPA:1,2009-03-01T13:00:00Z,30.6671,-87.9365,1.771,0.99,1111122 
DISL,ioos:station:DISL:MHPA:1,2009-03-01T13:30:00Z,30.6671,-87.9365,1.706,0.99,1111122 
DISL,ioos:station:DISL:MHPA:1,2009-03-01T14:00:00Z,30.6671,-87.9365,1.626,0.99,1111122 
DISL,ioos:station:DISL:MHPA:1,2009-03-01T14:30:00Z,30.6671,-87.9365,1.591,0.98,1111122 
DISL,ioos:station:DISL:MHPA:1,2009-03-01T15:00:00Z,30.6671,-87.9365,1.566,0.99,1111122 
DISL,ioos:station:DISL:MHPA:1,2009-03-01T15:30:00Z,30.6671,-87.9365,1.476,0.99,1111122 
DISL,ioos:station:DISL:MHPA:1,2009-03-01T16:00:00Z,30.6671,-87.9365,1.433,0.99,1111122 
DISL,ioos:station:DISL:MHPA:1,2009-03-01T16:30:00Z,30.6671,-87.9365,1.442,0.99,1111122 
DISL,ioos:station:DISL:MHPA:1,2009-03-01T17:00:00Z,30.6671,-87.9365,1.48,0.99,1111122 
DISL,ioos:station:DISL:MHPA:1,2009-03-01T17:30:00Z,30.6671,-87.9365,1.537,0.99,1111122 
DISL,ioos:station:DISL:MHPA:1,2009-03-01T18:00:00Z,30.6671,-87.9365,1.73,0.99,1111122 
DISL,ioos:station:DISL:MHPA:1,2009-03-01T18:30:00Z,30.6671,-87.9365,1.974,0.99,1111122 
DISL,ioos:station:DISL:MHPA:1,2009-03-01T19:00:00Z,30.6671,-87.9365,2.102,0.99,1111122 
DISL,ioos:station:DISL:MHPA:1,2009-03-01T19:30:00Z,30.6671,-87.9365,2.268,0.97,1111122 
DISL,ioos:station:DISL:MHPA:1,2009-03-01T20:00:00Z,30.6671,-87.9365,2.328,0.96,1111122 
DISL,ioos:station:DISL:MHPA:1,2009-03-01T20:30:00Z,30.6671,-87.9365,2.335,0.94,1111122 
DISL,ioos:station:DISL:MHPA:1,2009-03-01T21:00:00Z,30.6671,-87.9365,2.322,0.95,1111122 
DISL,ioos:station:DISL:MHPA:1,2009-03-01T21:30:00Z,30.6671,-87.9365,2.324,0.95,1111122 
DISL,ioos:station:DISL:MHPA:1,2009-03-01T22:00:00Z,30.6671,-87.9365,2.202,0.96,1111122 
DISL,ioos:station:DISL:MHPA:1,2009-03-01T22:30:00Z,30.6671,-87.9365,2.102,0.96,1111122 
DISL,ioos:station:DISL:MHPA:1,2009-03-01T23:00:00Z,30.6671,-87.9365,2.045,0.96,1111122 
DISL,ioos:station:DISL:MHPA:1,2009-03-01T23:30:00Z,30.6671,-87.9365,1.989,0.96,1111122 
DISL,ioos:station:DISL:MHPA:1,2009-03-02T00:00:00Z,30.6671,-87.9365,1.972,0.95,1111122 
DISL,ioos:station:DISL:MHPA:1,2009-03-02T00:30:00Z,30.6671,-87.9365,1.935,0.95,1111122 
DISL,ioos:station:DISL:MHPA:1,2009-03-02T01:00:00Z,30.6671,-87.9365,1.856,0.95,1111122 
DISL,ioos:station:DISL:MHPA:1,2009-03-02T01:30:00Z,30.6671,-87.9365,1.806,0.96,1111122 
DISL,ioos:station:DISL:MHPA:1,2009-03-02T02:00:00Z,30.6671,-87.9365,1.75,0.96,1111122 
DISL,ioos:station:DISL:MHPA:1,2009-03-02T02:30:00Z,30.6671,-87.9365,1.671,0.93,1111122 
DISL,ioos:station:DISL:MHPA:1,2009-03-02T03:00:00Z,30.6671,-87.9365,1.584,0.95,1111122 
DISL,ioos:station:DISL:MHPA:1,2009-03-02T03:30:00Z,30.6671,-87.9365,1.512,0.95,1111122 
DISL,ioos:station:DISL:MHPA:1,2009-03-02T04:00:00Z,30.6671,-87.9365,1.436,0.95,1111122 
DISL,ioos:station:DISL:MHPA:1,2009-03-02T04:30:00Z,30.6671,-87.9365,1.377,0.95,1111122 
DISL,ioos:station:DISL:MHPA:1,2009-03-02T05:00:00Z,30.6671,-87.9365,1.323,0.95,1111122 
DISL,ioos:station:DISL:MHPA:1,2009-03-02T05:30:00Z,30.6671,-87.9365,1.277,0.95,1111122 
DISL,ioos:station:DISL:MHPA:1,2009-03-02T06:00:00Z,30.6671,-87.9365,1.243,0.95,1111122 
DISL,ioos:station:DISL:MHPA:1,2009-03-02T06:30:00Z,30.6671,-87.9365,1.213,0.95,1111122 
DISL,ioos:station:DISL:MHPA:1,2009-03-02T07:00:00Z,30.6671,-87.9365,1.186,0.95,1111122 
DISL,ioos:station:DISL:MHPA:1,2009-03-02T07:30:00Z,30.6671,-87.9365,1.167,0.95,1111122 
DISL,ioos:station:DISL:MHPA:1,2009-03-02T08:00:00Z,30.6671,-87.9365,1.151,0.95,1111122 
DISL,ioos:station:DISL:MHPA:1,2009-03-02T08:30:00Z,30.6671,-87.9365,1.139,0.95,1111122 
DISL,ioos:station:DISL:MHPA:1,2009-03-02T09:00:00Z,30.6671,-87.9365,1.13,0.95,1111122 
DISL,ioos:station:DISL:MHPA:1,2009-03-02T09:30:00Z,30.6671,-87.9365,1.121,0.95,1111122 
DISL,ioos:station:DISL:MHPA:1,2009-03-02T10:00:00Z,30.6671,-87.9365,1.116,0.95,1111122 
DISL,ioos:station:DISL:MHPA:1,2009-03-02T10:30:00Z,30.6671,-87.9365,1.107,0.95,1111122 
DISL,ioos:station:DISL:MHPA:1,2009-03-02T11:00:00Z,30.6671,-87.9365,1.103,0.95,1111122 
DISL,ioos:station:DISL:MHPA:1,2009-03-02T11:30:00Z,30.6671,-87.9365,1.093,0.95,1111122 
DISL,ioos:station:DISL:MHPA:1,2009-03-02T12:00:00Z,30.6671,-87.9365,1.087,0.95,1111122 
DISL,ioos:station:DISL:MHPA:1,2009-03-02T12:30:00Z,30.6671,-87.9365,1.081,0.95,1111122 
DISL,ioos:station:DISL:MHPA:1,2009-03-02T13:00:00Z,30.6671,-87.9365,1.075,0.95,1111122 
DISL,ioos:station:DISL:MHPA:1,2009-03-02T13:30:00Z,30.6671,-87.9365,1.067,0.95,1111122 
DISL,ioos:station:DISL:MHPA:1,2009-03-02T14:00:00Z,30.6671,-87.9365,1.066,0.96,1111122 
DISL,ioos:station:DISL:MHPA:1,2009-03-02T14:30:00Z,30.6671,-87.9365,1.062,0.96,1111122 
DISL,ioos:station:DISL:MHPA:1,2009-03-02T15:00:00Z,30.6671,-87.9365,1.061,0.96,1111122 
DISL,ioos:station:DISL:MHPA:1,2009-03-02T15:30:00Z,30.6671,-87.9365,1.059,0.96,1111122 
DISL,ioos:station:DISL:MHPA:1,2009-03-02T16:00:00Z,30.6671,-87.9365,1.089,0.96,1111122 
DISL,ioos:station:DISL:MHPA:1,2009-03-02T16:30:00Z,30.6671,-87.9365,1.382,0.96,1111122 
DISL,ioos:station:DISL:MHPA:1,2009-03-02T17:00:00Z,30.6671,-87.9365,1.858,0.96,1111122 
DISL,ioos:station:DISL:MHPA:1,2009-03-02T17:30:00Z,30.6671,-87.9365,2.147,0.96,1111122 
DISL,ioos:station:DISL:MHPA:1,2009-03-02T18:00:00Z,30.6671,-87.9365,2.33,0.96,1111122 
DISL,ioos:station:DISL:MHPA:1,2009-03-02T18:30:00Z,30.6671,-87.9365,2.409,0.96,1111122 
DISL,ioos:station:DISL:MHPA:1,2009-03-02T19:00:00Z,30.6671,-87.9365,2.532,0.92,1111122 
DISL,ioos:station:DISL:MHPA:1,2009-03-02T19:30:00Z,30.6671,-87.9365,2.694,0.91,1111122 
DISL,ioos:station:DISL:MHPA:1,2009-03-02T20:00:00Z,30.6671,-87.9365,2.834,0.72,1111122 
DISL,ioos:station:DISL:MHPA:1,2009-03-02T20:30:00Z,30.6671,-87.9365,2.926,0.72,1111122 
DISL,ioos:station:DISL:MHPA:1,2009-03-02T21:00:00Z,30.6671,-87.9365,3.027,0.73,1111122 
DISL,ioos:station:DISL:MHPA:1,2009-03-02T21:30:00Z,30.6671,-87.9365,3.079,0.77,1111122 
DISL,ioos:station:DISL:MHPA:1,2009-03-02T22:00:00Z,30.6671,-87.9365,3.088,0.72,1111122 
DISL,ioos:station:DISL:MHPA:1,2009-03-02T22:30:00Z,30.6671,-87.9365,3.154,0.63,1111122 
DISL,ioos:station:DISL:MHPA:1,2009-03-02T23:00:00Z,30.6671,-87.9365,3.125,0.68,1111122 
DISL,ioos:station:DISL:MHPA:1,2009-03-02T23:30:00Z,30.6671,-87.9365,3.096,0.67,1111122 
DISL,ioos:station:DISL:MHPA:1,2009-03-03T00:00:00Z,30.6671,-87.9365,3.018,0.48,1111122 
DISL,ioos:station:DISL:MHPA:1,2009-03-03T00:30:00Z,30.6671,-87.9365,2.877,0.36,1111122 
DISL,ioos:station:DISL:MHPA:1,2009-03-03T01:00:00Z,30.6671,-87.9365,2.777,0.24,1111122 
DISL,ioos:station:DISL:MHPA:1,2009-03-03T01:30:00Z,30.6671,-87.9365,2.678,0.51,1111122 
DISL,ioos:station:DISL:MHPA:1,2009-03-03T02:00:00Z,30.6671,-87.9365,2.552,0.48,1111122 
DISL,ioos:station:DISL:MHPA:1,2009-03-03T02:30:00Z,30.6671,-87.9365,2.432,0.48,1111122 
DISL,ioos:station:DISL:MHPA:1,2009-03-03T03:00:00Z,30.6671,-87.9365,2.318,0.52,1111122 
DISL,ioos:station:DISL:MHPA:1,2009-03-03T03:30:00Z,30.6671,-87.9365,2.208,0.59,1111122 
DISL,ioos:station:DISL:MHPA:1,2009-03-03T04:00:00Z,30.6671,-87.9365,2.098,0.59,1111122 
DISL,ioos:station:DISL:MHPA:1,2009-03-03T04:30:00Z,30.6671,-87.9365,2.003,0.58,1111122 
DISL,ioos:station:DISL:MHPA:1,2009-03-03T05:00:00Z,30.6671,-87.9365,1.918,0.54,1111122 
DISL,ioos:station:DISL:MHPA:1,2009-03-03T05:30:00Z,30.6671,-87.9365,1.83,0.46,1111122 
DISL,ioos:station:DISL:MHPA:1,2009-03-03T06:00:00Z,30.6671,-87.9365,1.757,0.44,1111122 
DISL,ioos:station:DISL:MHPA:1,2009-03-03T06:30:00Z,30.6671,-87.9365,1.676,0.47,1111122 
DISL,ioos:station:DISL:MHPA:1,2009-03-03T07:00:00Z,30.6671,-87.9365,1.599,0.5,1111122 
DISL,ioos:station:DISL:MHPA:1,2009-03-03T07:30:00Z,30.6671,-87.9365,1.534,0.5,1111122 
DISL,ioos:station:DISL:MHPA:1,2009-03-03T08:00:00Z,30.6671,-87.9365,1.473,0.54,1111122 
DISL,ioos:station:DISL:MHPA:1,2009-03-03T08:30:00Z,30.6671,-87.9365,1.415,0.58,1111122 
DISL,ioos:station:DISL:MHPA:1,2009-03-03T09:00:00Z,30.6671,-87.9365,1.363,0.62,1111122 
DISL,ioos:station:DISL:MHPA:1,2009-03-03T09:30:00Z,30.6671,-87.9365,1.322,0.7,1111122 
DISL,ioos:station:DISL:MHPA:1,2009-03-03T10:00:00Z,30.6671,-87.9365,1.29,0.7,1111122 
DISL,ioos:station:DISL:MHPA:1,2009-03-03T10:30:00Z,30.6671,-87.9365,1.268,0.69,1111122 
DISL,ioos:station:DISL:MHPA:1,2009-03-03T11:00:00Z,30.6671,-87.9365,1.246,0.64,1111122 
DISL,ioos:station:DISL:MHPA:1,2009-03-03T11:30:00Z,30.6671,-87.9365,1.23,0.59,1111122 
DISL,ioos:station:DISL:MHPA:1,2009-03-03T12:00:00Z,30.6671,-87.9365,1.219,0.54,1111122 
DISL,ioos:station:DISL:MHPA:1,2009-03-03T12:30:00Z,30.6671,-87.9365,1.212,0.54,1111122 
DISL,ioos:station:DISL:MHPA:1,2009-03-03T13:00:00Z,30.6671,-87.9365,1.215,0.55,1111122 
DISL,ioos:station:DISL:MHPA:1,2009-03-03T13:30:00Z,30.6671,-87.9365,1.228,0.57,1111122 
DISL,ioos:station:DISL:MHPA:1,2009-03-03T14:00:00Z,30.6671,-87.9365,1.247,0.62,1111122 
DISL,ioos:station:DISL:MHPA:1,2009-03-03T14:30:00Z,30.6671,-87.9365,1.285,0.66,1111122 
DISL,ioos:station:DISL:MHPA:1,2009-03-03T15:00:00Z,30.6671,-87.9365,1.353,0.66,1111122 
DISL,ioos:station:DISL:MHPA:1,2009-03-03T15:30:00Z,30.6671,-87.9365,1.504,0.56,1111122 
DISL,ioos:station:DISL:MHPA:1,2009-03-03T16:00:00Z,30.6671,-87.9365,1.775,0.64,1111122 
DISL,ioos:station:DISL:MHPA:1,2009-03-03T16:30:00Z,30.6671,-87.9365,2.113,0.66,1111122 
DISL,ioos:station:DISL:MHPA:1,2009-03-03T17:00:00Z,30.6671,-87.9365,2.393,0.67,1111122 
DISL,ioos:station:DISL:MHPA:1,2009-03-03T17:30:00Z,30.6671,-87.9365,2.561,0.66,1111122 
DISL,ioos:station:DISL:MHPA:1,2009-03-03T18:00:00Z,30.6671,-87.9365,2.663,0.56,1111122 
DISL,ioos:station:DISL:MHPA:1,2009-03-03T18:30:00Z,30.6671,-87.9365,2.825,0.45,1111122 
DISL,ioos:station:DISL:MHPA:1,2009-03-03T19:00:00Z,30.6671,-87.9365,2.922,0.51,1111122 
DISL,ioos:station:DISL:MHPA:1,2009-03-03T19:30:00Z,30.6671,-87.9365,3.021,0.49,1111122 
DISL,ioos:station:DISL:MHPA:1,2009-03-03T20:00:00Z,30.6671,-87.9365,3.136,0.44,1111122 
DISL,ioos:station:DISL:MHPA:1,2009-03-03T20:30:00Z,30.6671,-87.9365,3.3,0.41,1111122 
DISL,ioos:station:DISL:MHPA:1,2009-03-03T21:00:00Z,30.6671,-87.9365,3.367,0.42,1111122 
DISL,ioos:station:DISL:MHPA:1,2009-03-03T21:30:00Z,30.6671,-87.9365,3.429,0.4,1111122 
DISL,ioos:station:DISL:MHPA:1,2009-03-03T22:00:00Z,30.6671,-87.9365,3.497,0.41,1111122 
DISL,ioos:station:DISL:MHPA:1,2009-03-03T22:30:00Z,30.6671,-87.9365,3.566,0.39,1111122 
DISL,ioos:station:DISL:MHPA:1,2009-03-03T23:00:00Z,30.6671,-87.9365,3.597,0.44,1111122 
DISL,ioos:station:DISL:MHPA:1,2009-03-03T23:30:00Z,30.6671,-87.9365,3.547,0.41,1111122 
DISL,ioos:station:DISL:MHPA:1,2009-03-04T00:00:00Z,30.6671,-87.9365,3.557,0.39,1111122 
DISL,ioos:station:DISL:MHPA:1,2009-03-04T00:30:00Z,30.6671,-87.9365,3.488,0.41,1111122 
DISL,ioos:station:DISL:MHPA:1,2009-03-04T01:00:00Z,30.6671,-87.9365,3.362,0.4,1111122 
DISL,ioos:station:DISL:MHPA:1,2009-03-04T01:30:00Z,30.6671,-87.9365,3.276,0.39,1111122 
DISL,ioos:station:DISL:MHPA:1,2009-03-04T02:00:00Z,30.6671,-87.9365,3.169,0.37,1111122 
DISL,ioos:station:DISL:MHPA:1,2009-03-04T02:30:00Z,30.6671,-87.9365,3.039,0.33,1111122 
DISL,ioos:station:DISL:MHPA:1,2009-03-04T03:00:00Z,30.6671,-87.9365,2.934,0.16,1111122 
DISL,ioos:station:DISL:MHPA:1,2009-03-04T03:30:00Z,30.6671,-87.9365,2.842,0.15,1111122 
DISL,ioos:station:DISL:MHPA:1,2009-03-04T04:00:00Z,30.6671,-87.9365,2.708,0.15,1111122 
DISL,ioos:station:DISL:MHPA:1,2009-03-04T04:30:00Z,30.6671,-87.9365,2.618,0.16,1111122 
DISL,ioos:station:DISL:MHPA:1,2009-03-04T05:00:00Z,30.6671,-87.9365,2.53,0.16,1111122 
DISL,ioos:station:DISL:MHPA:1,2009-03-04T05:30:00Z,30.6671,-87.9365,2.446,0.16,1111122 
DISL,ioos:station:DISL:MHPA:1,2009-03-04T06:00:00Z,30.6671,-87.9365,2.355,0.17,1111122 
DISL,ioos:station:DISL:MHPA:1,2009-03-04T06:30:00Z,30.6671,-87.9365,2.281,0.16,1111122 
DISL,ioos:station:DISL:MHPA:1,2009-03-04T07:00:00Z,30.6671,-87.9365,2.198,0.16,1111122 
DISL,ioos:station:DISL:MHPA:1,2009-03-04T07:30:00Z,30.6671,-87.9365,2.121,0.14,1111122 
DISL,ioos:station:DISL:MHPA:1,2009-03-04T08:00:00Z,30.6671,-87.9365,2.048,0.21,1111122 
DISL,ioos:station:DISL:MHPA:1,2009-03-04T08:30:00Z,30.6671,-87.9365,1.972,0.3,1111122 
DISL,ioos:station:DISL:MHPA:1,2009-03-04T09:00:00Z,30.6671,-87.9365,1.904,0.28,1111122 
DISL,ioos:station:DISL:MHPA:1,2009-03-04T09:30:00Z,30.6671,-87.9365,1.843,0.26,1111122 
DISL,ioos:station:DISL:MHPA:1,2009-03-04T10:00:00Z,30.6671,-87.9365,1.803,0.25,1111122 
DISL,ioos:station:DISL:MHPA:1,2009-03-04T10:30:00Z,30.6671,-87.9365,1.779,0.24,1111122 
DISL,ioos:station:DISL:MHPA:1,2009-03-04T11:00:00Z,30.6671,-87.9365,1.762,0.22,1111122 
DISL,ioos:station:DISL:MHPA:1,2009-03-04T11:30:00Z,30.6671,-87.9365,1.756,0.22,1111122 
DISL,ioos:station:DISL:MHPA:1,2009-03-04T12:00:00Z,30.6671,-87.9365,1.748,0.21,1111122 
DISL,ioos:station:DISL:MHPA:1,2009-03-04T12:30:00Z,30.6671,-87.9365,1.742,0.21,1111122 
DISL,ioos:station:DISL:MHPA:1,2009-03-04T13:00:00Z,30.6671,-87.9365,1.752,0.22,1111122 
DISL,ioos:station:DISL:MHPA:1,2009-03-04T13:30:00Z,30.6671,-87.9365,1.791,0.23,1111122 
DISL,ioos:station:DISL:MHPA:1,2009-03-04T14:00:00Z,30.6671,-87.9365,1.867,0.23,1111122 
DISL,ioos:station:DISL:MHPA:1,2009-03-04T14:30:00Z,30.6671,-87.9365,1.966,0.24,1111122 
DISL,ioos:station:DISL:MHPA:1,2009-03-04T15:00:00Z,30.6671,-87.9365,2.154,0.24,1111122 
DISL,ioos:station:DISL:MHPA:1,2009-03-04T15:30:00Z,30.6671,-87.9365,2.39,0.26,1111122 
DISL,ioos:station:DISL:MHPA:1,2009-03-04T16:00:00Z,30.6671,-87.9365,2.604,0.24,1111122 
DISL,ioos:station:DISL:MHPA:1,2009-03-04T16:30:00Z,30.6671,-87.9365,2.774,0.27,1111122 
DISL,ioos:station:DISL:MHPA:1,2009-03-04T17:00:00Z,30.6671,-87.9365,2.896,0.28,1111122 
DISL,ioos:station:DISL:MHPA:1,2009-03-04T17:30:00Z,30.6671,-87.9365,3.014,0.25,1111122 
DISL,ioos:station:DISL:MHPA:1,2009-03-04T18:00:00Z,30.6671,-87.9365,3.117,0.27,1111122 
DISL,ioos:station:DISL:MHPA:1,2009-03-04T18:30:00Z,30.6671,-87.9365,3.254,0.29,1111122 
DISL,ioos:station:DISL:MHPA:1,2009-03-04T19:00:00Z,30.6671,-87.9365,3.459,0.29,1111122 
DISL,ioos:station:DISL:MHPA:1,2009-03-04T19:30:00Z,30.6671,-87.9365,3.64,0.3,1111122 
DISL,ioos:station:DISL:MHPA:1,2009-03-04T20:00:00Z,30.6671,-87.9365,3.768,0.31,1111122 
DISL,ioos:station:DISL:MHPA:1,2009-03-04T20:30:00Z,30.6671,-87.9365,3.877,0.33,1111122 
DISL,ioos:station:DISL:MHPA:1,2009-03-04T21:00:00Z,30.6671,-87.9365,3.997,0.31,1111122 
DISL,ioos:station:DISL:MHPA:1,2009-03-04T21:30:00Z,30.6671,-87.9365,4.085,0.25,1111122 
DISL,ioos:station:DISL:MHPA:1,2009-03-04T22:00:00Z,30.6671,-87.9365,4.151,0.27,1111122 
DISL,ioos:station:DISL:MHPA:1,2009-03-04T22:30:00Z,30.6671,-87.9365,4.207,0.24,1111122 
DISL,ioos:station:DISL:MHPA:1,2009-03-04T23:00:00Z,30.6671,-87.9365,4.232,0.22,1111122 
DISL,ioos:station:DISL:MHPA:1,2009-03-04T23:30:00Z,30.6671,-87.9365,4.245,0.23,1111122 
DISL,ioos:station:DISL:MHPA:1,2009-03-05T00:00:00Z,30.6671,-87.9365,4.194,0.24,1111122 
DISL,ioos:station:DISL:MHPA:1,2009-03-05T00:30:00Z,30.6671,-87.9365,4.137,0.24,1111122 
DISL,ioos:station:DISL:MHPA:1,2009-03-05T01:00:00Z,30.6671,-87.9365,4.055,0.26,1111122 
DISL,ioos:station:DISL:MHPA:1,2009-03-05T01:30:00Z,30.6671,-87.9365,3.944,0.3,1111122 
DISL,ioos:station:DISL:MHPA:1,2009-03-05T02:00:00Z,30.6671,-87.9365,3.823,0.23,1111122 
DISL,ioos:station:DISL:MHPA:1,2009-03-05T02:30:00Z,30.6671,-87.9365,3.689,0.21,1111122 
DISL,ioos:station:DISL:MHPA:1,2009-03-05T03:00:00Z,30.6671,-87.9365,3.556,0.21,1111122 
DISL,ioos:station:DISL:MHPA:1,2009-03-05T03:30:00Z,30.6671,-87.9365,3.416,0.22,1111122 
DISL,ioos:station:DISL:MHPA:1,2009-03-05T04:00:00Z,30.6671,-87.9365,3.297,0.22,1111122 
DISL,ioos:station:DISL:MHPA:1,2009-03-05T04:30:00Z,30.6671,-87.9365,3.175,0.23,1111122 
DISL,ioos:station:DISL:MHPA:1,2009-03-05T05:00:00Z,30.6671,-87.9365,3.066,0.23,1111122 
DISL,ioos:station:DISL:MHPA:1,2009-03-05T05:30:00Z,30.6671,-87.9365,2.976,0.23,1111122 
DISL,ioos:station:DISL:MHPA:1,2009-03-05T06:00:00Z,30.6671,-87.9365,2.87,0.23,1111122 
DISL,ioos:station:DISL:MHPA:1,2009-03-05T06:30:00Z,30.6671,-87.9365,2.772,0.24,1111122 
DISL,ioos:station:DISL:MHPA:1,2009-03-05T07:00:00Z,30.6671,-87.9365,2.682,0.24,1111122 
DISL,ioos:station:DISL:MHPA:1,2009-03-05T07:30:00Z,30.6671,-87.9365,2.594,0.24,1111122 
DISL,ioos:station:DISL:MHPA:1,2009-03-05T08:00:00Z,30.6671,-87.9365,2.493,0.24,1111122 
DISL,ioos:station:DISL:MHPA:1,2009-03-05T08:30:00Z,30.6671,-87.9365,2.398,0.24,1111122 
DISL,ioos:station:DISL:MHPA:1,2009-03-05T09:00:00Z,30.6671,-87.9365,2.313,0.24,1111122 
DISL,ioos:station:DISL:MHPA:1,2009-03-05T09:30:00Z,30.6671,-87.9365,2.241,0.24,1111122 
DISL,ioos:station:DISL:MHPA:1,2009-03-05T10:00:00Z,30.6671,-87.9365,2.186,0.23,1111122 
DISL,ioos:station:DISL:MHPA:1,2009-03-05T10:30:00Z,30.6671,-87.9365,2.132,0.23,1111122 
DISL,ioos:station:DISL:MHPA:1,2009-03-05T11:00:00Z,30.6671,-87.9365,2.082,0.22,1111122 
DISL,ioos:station:DISL:MHPA:1,2009-03-05T11:30:00Z,30.6671,-87.9365,2.043,0.2,1111122 
DISL,ioos:station:DISL:MHPA:1,2009-03-05T12:00:00Z,30.6671,-87.9365,2.019,0.17,1111122 
DISL,ioos:station:DISL:MHPA:1,2009-03-05T12:30:00Z,30.6671,-87.9365,2.006,0.16,1111122 
DISL,ioos:station:DISL:MHPA:1,2009-03-05T13:00:00Z,30.6671,-87.9365,2.011,0.16,1111122 
DISL,ioos:station:DISL:MHPA:1,2009-03-05T13:30:00Z,30.6671,-87.9365,2.034,0.17,1111122 
DISL,ioos:station:DISL:MHPA:1,2009-03-05T14:00:00Z,30.6671,-87.9365,2.11,0.21,1111122 
DISL,ioos:station:DISL:MHPA:1,2009-03-05T14:30:00Z,30.6671,-87.9365,2.235,0.22,1111122 
DISL,ioos:station:DISL:MHPA:1,2009-03-05T15:00:00Z,30.6671,-87.9365,2.441,0.21,1111122 
DISL,ioos:station:DISL:MHPA:1,2009-03-05T15:30:00Z,30.6671,-87.9365,2.662,0.2,1111122 
DISL,ioos:station:DISL:MHPA:1,2009-03-05T16:00:00Z,30.6671,-87.9365,2.876,0.2,1111122 
DISL,ioos:station:DISL:MHPA:1,2009-03-05T16:30:00Z,30.6671,-87.9365,3.03,0.21,1111122 
DISL,ioos:station:DISL:MHPA:1,2009-03-05T17:00:00Z,30.6671,-87.9365,3.153,0.2,1111122 
DISL,ioos:station:DISL:MHPA:1,2009-03-05T17:30:00Z,30.6671,-87.9365,3.289,0.21,1111122 
DISL,ioos:station:DISL:MHPA:1,2009-03-05T18:00:00Z,30.6671,-87.9365,3.433,0.22,1111122 
DISL,ioos:station:DISL:MHPA:1,2009-03-05T18:30:00Z,30.6671,-87.9365,3.523,0.22,1111122 
DISL,ioos:station:DISL:MHPA:1,2009-03-05T19:00:00Z,30.6671,-87.9365,3.657,0.21,1111122 
DISL,ioos:station:DISL:MHPA:1,2009-03-05T19:30:00Z,30.6671,-87.9365,3.823,0.21,1111122 
DISL,ioos:station:DISL:MHPA:1,2009-03-05T20:00:00Z,30.6671,-87.9365,3.925,0.21,1111122 
DISL,ioos:station:DISL:MHPA:1,2009-03-05T20:30:00Z,30.6671,-87.9365,4.105,0.2,1111122 
DISL,ioos:station:DISL:MHPA:1,2009-03-05T21:00:00Z,30.6671,-87.9365,4.174,0.19,1111122 
DISL,ioos:station:DISL:MHPA:1,2009-03-05T21:30:00Z,30.6671,-87.9365,4.217,0.17,1111122 
DISL,ioos:station:DISL:MHPA:1,2009-03-05T22:00:00Z,30.6671,-87.9365,4.281,0.15,1111122 
DISL,ioos:station:DISL:MHPA:1,2009-03-05T22:30:00Z,30.6671,-87.9365,4.34,0.14,1111122 
DISL,ioos:station:DISL:MHPA:1,2009-03-05T23:00:00Z,30.6671,-87.9365,4.367,0.13,1111122 
DISL,ioos:station:DISL:MHPA:1,2009-03-05T23:30:00Z,30.6671,-87.9365,4.43,0.16,1111122 
DISL,ioos:station:DISL:MHPA:1,2009-03-06T00:00:00Z,30.6671,-87.9365,4.427,0.18,1111122 
DISL,ioos:station:DISL:MHPA:1,2009-03-06T00:30:00Z,30.6671,-87.9365,4.418,0.17,1111122 
DISL,ioos:station:DISL:MHPA:1,2009-03-06T01:00:00Z,30.6671,-87.9365,4.385,0.17,1111122 
DISL,ioos:station:DISL:MHPA:1,2009-03-06T01:30:00Z,30.6671,-87.9365,4.344,0.17,1111122 
DISL,ioos:station:DISL:MHPA:1,2009-03-06T02:00:00Z,30.6671,-87.9365,4.274,0.16,1111122 
DISL,ioos:station:DISL:MHPA:1,2009-03-06T02:30:00Z,30.6671,-87.9365,4.166,0.16,1111122 
DISL,ioos:station:DISL:MHPA:1,2009-03-06T03:00:00Z,30.6671,-87.9365,4.048,0.16,1111122 
DISL,ioos:station:DISL:MHPA:1,2009-03-06T03:30:00Z,30.6671,-87.9365,3.935,0.17,1111122 
DISL,ioos:station:DISL:MHPA:1,2009-03-06T04:00:00Z,30.6671,-87.9365,3.807,0.18,1111122 
DISL,ioos:station:DISL:MHPA:1,2009-03-06T04:30:00Z,30.6671,-87.9365,3.692,0.18,1111122 
DISL,ioos:station:DISL:MHPA:1,2009-03-06T05:00:00Z,30.6671,-87.9365,3.566,0.18,1111122 
DISL,ioos:station:DISL:MHPA:1,2009-03-06T05:30:00Z,30.6671,-87.9365,3.449,0.18,1111122 
DISL,ioos:station:DISL:MHPA:1,2009-03-06T06:00:00Z,30.6671,-87.9365,3.353,0.17,1111122 
DISL,ioos:station:DISL:MHPA:1,2009-03-06T06:30:00Z,30.6671,-87.9365,3.237,0.17,1111122 
DISL,ioos:station:DISL:MHPA:1,2009-03-06T07:00:00Z,30.6671,-87.9365,3.132,0.17,1111122 
DISL,ioos:station:DISL:MHPA:1,2009-03-06T07:30:00Z,30.6671,-87.9365,3.039,0.15,1111122 
DISL,ioos:station:DISL:MHPA:1,2009-03-06T08:00:00Z,30.6671,-87.9365,2.937,0.15,1111122 
DISL,ioos:station:DISL:MHPA:1,2009-03-06T08:30:00Z,30.6671,-87.9365,2.837,0.14,1111122 
DISL,ioos:station:DISL:MHPA:1,2009-03-06T09:00:00Z,30.6671,-87.9365,2.751,0.14,1111122 
DISL,ioos:station:DISL:MHPA:1,2009-03-06T09:30:00Z,30.6671,-87.9365,2.676,0.13,1111122 
DISL,ioos:station:DISL:MHPA:1,2009-03-06T10:00:00Z,30.6671,-87.9365,2.597,0.13,1111122 
DISL,ioos:station:DISL:MHPA:1,2009-03-06T10:30:00Z,30.6671,-87.9365,2.524,0.15,1111122 
DISL,ioos:station:DISL:MHPA:1,2009-03-06T11:00:00Z,30.6671,-87.9365,2.447,0.16,1111122 
DISL,ioos:station:DISL:MHPA:1,2009-03-06T11:30:00Z,30.6671,-87.9365,2.38,0.15,1111122 
DISL,ioos:station:DISL:MHPA:1,2009-03-06T12:00:00Z,30.6671,-87.9365,2.305,0.14,1111122 
DISL,ioos:station:DISL:MHPA:1,2009-03-06T12:30:00Z,30.6671,-87.9365,2.244,0.14,1111122 
DISL,ioos:station:DISL:MHPA:1,2009-03-06T13:00:00Z,30.6671,-87.9365,2.198,0.13,1111122 
DISL,ioos:station:DISL:MHPA:1,2009-03-06T13:30:00Z,30.6671,-87.9365,2.167,0.12,1111122 
DISL,ioos:station:DISL:MHPA:1,2009-03-06T14:00:00Z,30.6671,-87.9365,2.174,0.13,1111122 
DISL,ioos:station:DISL:MHPA:1,2009-03-06T14:30:00Z,30.6671,-87.9365,2.189,0.14,1111122 
DISL,ioos:station:DISL:MHPA:1,2009-03-06T15:00:00Z,30.6671,-87.9365,2.242,0.14,1111122 
DISL,ioos:station:DISL:MHPA:1,2009-03-06T15:30:00Z,30.6671,-87.9365,2.386,0.14,1111122 